Location: Newark
(34.9756°N, 138.3828°E)
Time: 05:43:17
(UTC+00:00)

N. Korean satellite - Pass Details

Date: 16 December 2019
Orbit: 454 x 508 km, 97.2° (Epoch: 20 January)

Event Time Altitude Azimuth Distance (km) Brightness Sun altitude
Rises 08:16:42 0° 183° (S) 2,595 10.6 -8.3°
Reaches altitude 10° 08:18:53 10° 191° (S) 1,712 9.8 -8.7°
Maximum altitude 08:22:21 39° 261° (W) 760 8.2 -9.4°
Drops below altitude 10° 08:25:50 10° 332° (NNW) 1,707 9.4 -10.0°
Sets 08:28:01 0° 340° (NNW) 2,587 10.2 -10.4°
